Volver al catálogo

FENGYUN 1C DEB

ActivoPO
NORAD 31261·DEBRIS·🇨🇳 China

Lanzado May 10, 1999 desde Taiyuan Satellite Launch Center

Loading…

Próximos Pases (próximas 24 horas)

TLE

ActualizadoSource: Space-Track

Época: Sep 13, 2026, 09:01 UTC

1 31261U 99025BMT 26256.37625064  .00001552  00000-0  48517-3 0  9993
2 31261  99.0413 230.0419 0050247 140.2439 220.2448 14.41564056 13014

Sigue FENGYUN 1C DEB en tiempo real con AllMySat

Download on the App Store